K9NRG Weather Reports


time (UTC)temp
F
wind
direction
speed
knots
gust
knots
rain 1hr
in
rain 24hr
in
rain mn
in
humidity
%
barometer
mb
20260508085004 39 184 0.0 0.0 0.00 0.00 0.00 50 1006.2
20260508084004 39 184 0.0 1.7 0.00 0.00 0.00 45 1006.3
20260508082004 42 184 0.0 0.0 0.00 0.00 0.00 45 1005.6
20260508081003 43 183 0.0 0.0 0.00 0.00 0.00 44 1005.6
20260508075004 42 184 0.0 0.9 0.00 0.00 0.00 44 1006.0
20260508073004 43 184 0.0 0.0 0.00 0.00 0.00 41 1006.0
20260508072004 43 184 0.0 0.0 0.00 0.00 0.00 41 1005.7
20260508071004 43 184 0.0 0.0 0.00 0.00 0.00 41 1005.9
20260508070004 43 184 0.0 0.0 0.00 0.00 0.00 41 1005.5
20260508065004 44 184 0.0 0.0 0.00 0.00 0.00 41 1006.0
20260508063004 45 183 0.0 0.0 0.00 0.00 0.00 40 1005.4
20260508062003 45 184 0.0 0.0 0.00 0.00 0.00 39 1005.6
20260508061004 44 184 0.0 0.0 0.00 0.00 0.00 41 1005.8
20260508060004 45 184 0.0 0.0 0.00 0.00 0.00 38 1005.2
20260508055004 46 184 0.0 0.0 0.00 0.00 0.00 37 1006.7
20260508054004 46 183 0.0 0.0 0.00 0.00 0.00 37 1006.7
20260508050003 46 184 0.0 0.0 0.00 0.00 0.00 39 1006.6
20260508045004 46 184 0.0 0.0 0.00 0.00 0.00 34 1006.9
20260508044004 47 184 0.0 0.0 0.00 0.00 0.00 31 1006.2
20260508043004 47 184 0.0 0.0 0.00 0.00 0.00 31 1006.1
20260508042004 48 184 0.0 1.7 0.00 0.00 0.00 31 1006.1
20260508041004 49 184 0.0 0.0 0.00 0.00 0.00 28 1005.6
20260508040004 50 184 0.0 0.9 0.00 0.00 0.00 27 1005.4
20260508035004 51 184 0.0 0.0 0.00 0.00 0.00 25 1006.8
20260508034004 52 184 0.0 0.0 0.00 0.00 0.00 23 1006.7
20260508033004 52 183 0.0 0.0 0.00 0.00 0.00 25 1006.5
20260508032004 54 184 0.0 0.0 0.00 0.00 0.00 23 1005.8
20260508030004 55 182 0.9 5.2 0.00 0.00 0.00 20 1005.0
20260508024004 55 196 0.0 4.3 0.00 0.00 0.00 22 1005.9
20260508020004 58 270 0.0 0.0 0.00 0.00 0.00 21 1005.1
20260508015004 59 270 0.0 0.9 0.00 0.00 0.00 20 1006.5
20260508014003 60 347 0.0 4.3 0.00 0.00 0.00 19 1005.9
20260508013004 60 123 0.0 0.9 0.00 0.00 0.00 19 1005.8
20260508012003 61 109 0.0 0.0 0.00 0.00 0.00 17 1005.8
20260508011004 62 110 0.0 0.0 0.00 0.00 0.00 17 1005.2
20260508005003 63 336 0.0 4.3 0.00 0.00 0.00 16 1007.3
20260508004004 63 356 0.0 1.7 0.00 0.00 0.00 16 1007.3
20260508002004 64 145 0.0 1.7 0.00 0.00 0.00 14 1006.8
20260507235004 64 340 0.9 5.2 0.00 0.00 0.00 14 1007.4
20260507233002 65 178 0.9 6.1 0.00 0.00 0.00 13 1007.4
20260507232002 65 210 2.6 6.1 0.00 0.00 0.00 13 1007.4
20260507231003 65 127 0.9 2.6 0.00 0.00 0.00 14 1007.5
20260507225002 66 8 0.9 4.3 0.00 0.00 0.00 15 1006.6
20260507224002 66 327 0.9 6.1 0.00 0.00 0.00 15 1006.7
20260507223002 66 314 0.0 4.3 0.00 0.00 0.00 14 1006.7
20260507221002 66 162 0.0 5.2 0.00 0.00 0.00 14 1007.0
20260507215002 65 11 1.7 6.1 0.00 0.00 0.00 14 1007.7
20260507214002 65 150 1.7 7.0 0.00 0.00 0.00 14 1007.9
20260507213002 65 148 0.9 6.1 0.00 0.00 0.00 14 1008.2
20260507211002 65 166 1.7 10.4 0.00 0.00 0.00 15 1008.5
20260507210002 67 261 0.0 6.1 0.00 0.00 0.00 16 1008.1
20260507204002 67 225 0.9 4.3 0.00 0.00 0.00 16 1008.9
20260507202003 64 75 0.0 4.3 0.00 0.00 0.00 18 1009.9
20260507200002 64 68 1.7 5.2 0.00 0.00 0.00 16 1010.1
20260507195002 63 171 0.0 2.6 0.00 0.00 0.00 16 1009.7
20260507194002 63 176 0.0 2.6 0.00 0.00 0.00 17 1010.0
20260507193002 63 172 0.9 4.3 0.00 0.00 0.00 17 1010.1
20260507192003 64 7 0.0 1.7 0.00 0.00 0.00 15 1010.3
20260507191002 63 0 0.9 4.3 0.00 0.00 0.00 21 1010.2
20260507190004 62 141 0.9 2.6 0.00 0.00 0.00 18 1011.0
20260507185002 62 61 0.9 2.6 0.00 0.00 0.00 20 1010.7
20260507184002 60 72 0.0 2.6 0.00 0.00 0.00 24 1011.3
20260507183002 60 68 0.0 4.3 0.00 0.00 0.00 21 1011.4
20260507182002 60 1 0.9 2.6 0.00 0.01 0.00 23 1011.5
20260507181002 58 82 0.9 5.2 0.00 0.01 0.00 23 1012.4
20260507174001 57 34 0.0 1.7 0.00 0.01 0.00 24 1012.6
20260507173002 58 66 0.9 5.2 0.00 0.01 0.00 22 1012.2
20260507172002 59 40 0.0 1.7 0.00 0.01 0.00 23 1012.3
20260507171002 57 6 0.0 4.3 0.00 0.01 0.00 25 1013.2
20260507170002 57 10 0.9 5.2 0.00 0.01 0.00 24 1013.3
20260507165002 56 34 0.0 0.9 0.00 0.01 0.00 26 1012.9
20260507164002 54 27 0.9 2.6 0.00 0.01 0.00 28 1014.0
20260507163002 53 55 0.0 2.6 0.00 0.01 0.00 24 1014.4
20260507162002 51 76 0.0 4.3 0.00 0.01 0.00 26 1014.9
20260507160002 49 80 0.9 5.2 0.00 0.01 0.00 31 1015.6
20260507152002 47 69 0.9 5.2 0.00 0.01 0.00 35 1016.2
20260507151002 46 71 2.6 5.2 0.00 0.01 0.00 33 1016.3
20260507150002 45 47 0.9 2.6 0.00 0.01 0.00 34 1016.9
20260507144002 42 68 1.7 2.6 0.00 0.01 0.00 37 1016.8
20260507143002 42 68 0.0 1.7 0.00 0.01 0.00 39 1017.2
20260507142002 41 68 0.0 2.6 0.00 0.01 0.00 41 1017.3
20260507141002 40 68 0.0 2.6 0.00 0.01 0.00 41 1017.9
20260507140002 38 69 1.7 2.6 0.00 0.01 0.00 47 1018.4
20260507135002 37 128 0.0 1.7 0.00 0.01 0.00 47 1017.4
20260507134002 36 147 0.0 0.9 0.00 0.01 0.00 49 1017.9
20260507133002 34 147 0.0 0.0 0.00 0.01 0.00 54 1018.5
20260507131003 33 148 0.0 0.9 0.00 0.01 0.00 56 1018.3
20260507130003 31 147 0.0 0.0 0.00 0.01 0.00 60 1019.0
20260507124003 27 148 0.0 0.0 0.00 0.01 0.00 62 1018.5
20260507123002 27 148 0.0 0.0 0.00 0.01 0.00 61 1018.6
20260507121002 27 147 0.0 0.0 0.00 0.01 0.00 60 1018.5
20260507120002 28 148 0.0 0.0 0.00 0.01 0.00 59 1018.5
20260507115002 28 148 0.0 0.0 0.00 0.01 0.00 58 1017.7
20260507114002 28 148 0.0 0.0 0.00 0.01 0.00 57 1017.6
20260507113002 29 148 0.0 0.0 0.00 0.01 0.00 57 1017.5
20260507111002 30 148 0.0 0.0 0.00 0.01 0.00 56 1017.2
20260507110003 30 148 0.0 2.6 0.00 0.01 0.00 56 1016.8
20260507105003 29 147 0.0 0.0 0.00 0.01 0.00 58 1017.9
20260507104003 29 148 0.0 0.0 0.00 0.01 0.00 57 1017.9
20260507103003 29 148 0.0 0.0 0.00 0.01 0.00 56 1017.9
20260507102002 31 148 0.0 0.0 0.00 0.01 0.00 53 1017.2
20260507101002 31 148 0.0 1.7 0.00 0.01 0.00 53 1017.2
20260507100002 30 148 0.9 2.6 0.00 0.01 0.00 55 1017.1
20260507094002 28 337 0.0 0.0 0.00 0.01 0.00 57 1018.0
20260507093002 28 337 0.0 0.0 0.00 0.01 0.00 57 1018.1
20260507092003 28 337 0.0 0.0 0.00 0.01 0.00 56 1017.8
20260507091002 29 337 0.0 0.0 0.00 0.01 0.00 56 1017.4
20260507090002 29 337 0.0 0.0 0.00 0.01 0.00 56 1017.6